User: anonymous   Login
Location: Unspecified
(0.0000°N, 0.0000°E)
Time: 20:20:03
(UTC+00:00)
Language:

STARLINK-30972 - Orbit

View from above orbital plane
View from above orbital plane
View from above satellite
View from above satellite

Ground track
Ground track

The orbit is defined by the following mean orbital elements,

1 58721U          26145.54557797 +.00000000 +00000-0 +15118-4 0 00003
2 58721  53.1586 232.8520 0001026  85.3140 274.7978 15.30188891    03
Epoch (UTC): 25 May 2026 13:05:37
Eccentricity: 0.0001026
inclination: 53.1586°
perigee height: 475 km
apogee height: 476 km
right ascension of ascending node: 232.8520°
argument of perigee: 85.3140°
revolutions per day: 15.30188891
mean anomaly at epoch: 274.7978°

The dashed part of the orbit path shows where the satellite is in the earth's shadow,  

DLR